FW7539 Weather Reports


Display with metric or nautical units.
time (UTC)temp
F
wind
direction
speed
MPH
gust
MPH
rain 1hr
in
rain 24hr
in
rain mn
in
humidity
%
barometer
mb
20260506141002 50 347 2.0 6.0 0.00 0.91 0.45 77 1013.1
20260506140501 50 356 2.0 7.0 0.00 0.91 0.45 77 1013.2
20260506140002 50 358 2.0 7.0 0.00 0.91 0.45 78 1013.2
20260506135501 50 354 2.0 5.0 0.00 0.91 0.45 80 1013.0
20260506135002 50 348 2.0 5.0 0.00 0.91 0.45 79 1013.0
20260506134502 50 351 3.0 8.0 0.00 0.91 0.45 79 1013.0
20260506134023 49 351 2.0 8.0 0.00 0.91 0.45 81 1012.9
20260506133502 49 350 2.0 9.0 0.00 0.91 0.45 82 1013.0
20260506133001 48 345 2.0 9.0 0.00 0.91 0.45 82 1012.8
20260506132522 48 324 2.0 5.0 0.00 0.91 0.45 82 1012.7
20260506132002 48 347 2.0 6.0 0.00 0.91 0.45 83 1012.9
20260506131502 48 358 2.0 6.0 0.00 0.91 0.45 83 1012.6
20260506131022 48 4 2.0 5.0 0.00 0.91 0.45 83 1012.5
20260506130502 47 1 2.0 5.0 0.00 0.91 0.45 84 1012.3
20260506130002 47 1 2.0 5.0 0.00 0.91 0.45 84 1012.4
20260506125502 47 354 1.0 5.0 0.00 0.91 0.45 85 1012.6
20260506125002 47 314 1.0 4.0 0.00 0.91 0.45 85 1012.8
20260506124501 47 305 1.0 4.0 0.00 0.91 0.45 85 1012.6
20260506124002 47 340 1.0 6.0 0.00 0.91 0.45 86 1012.4
20260506123502 46 344 2.0 6.0 0.00 0.91 0.45 86 1012.3
20260506123023 46 326 1.0 4.0 0.00 0.91 0.45 86 1012.3
20260506122501 46 340 2.0 7.0 0.00 0.91 0.45 86 1012.5
20260506122002 46 336 2.0 7.0 0.00 0.91 0.45 87 1012.4
20260506121502 46 315 1.0 5.0 0.00 0.91 0.45 86 1012.2
20260506121001 46 328 1.0 6.0 0.00 0.91 0.45 87 1012.2
20260506120501 46 344 1.0 6.0 0.00 0.91 0.45 87 1012.1
20260506120002 46 339 1.0 3.0 0.00 0.91 0.45 87 1011.9
20260506115502 46 347 1.0 4.0 0.00 0.91 0.45 87 1011.7
20260506115002 46 358 2.0 6.0 0.00 0.91 0.45 87 1011.6
20260506114502 45 358 2.0 6.0 0.00 0.91 0.45 87 1011.5
20260506114001 45 330 1.0 5.0 0.00 0.92 0.45 88 1011.1
20260506113502 45 318 1.0 4.0 0.00 0.92 0.45 88 1011.0
20260506113002 45 354 1.0 4.0 0.00 0.92 0.45 88 1011.1
20260506112502 45 339 1.0 3.0 0.00 0.92 0.45 89 1010.8
20260506112001 45 322 1.0 3.0 0.00 0.92 0.45 88 1011.0
20260506111523 45 351 1.0 6.0 0.00 0.92 0.45 88 1011.0
20260506111002 45 5 1.0 6.0 0.00 0.92 0.45 88 1010.5
20260506110502 45 12 1.0 4.0 0.00 0.92 0.45 89 1010.7
20260506110001 45 358 1.0 4.0 0.00 0.93 0.45 89 1010.6
20260506105502 44 310 1.0 4.0 0.00 0.93 0.45 89 1010.7
20260506105002 44 266 1.0 2.0 0.00 0.93 0.45 89 1010.8
20260506104502 44 316 1.0 3.0 0.00 0.93 0.45 89 1010.5
20260506104023 44 350 1.0 4.0 0.00 0.93 0.45 89 1009.9
20260506103502 44 278 1.0 4.0 0.00 0.93 0.45 89 1009.9
20260506103002 44 272 1.0 5.0 0.00 0.93 0.45 88 1010.0
20260506102502 44 308 1.0 5.0 0.00 0.93 0.45 88 1010.4
20260506102002 44 319 1.0 2.0 0.00 0.93 0.45 88 1010.5
20260506101502 45 305 1.0 4.0 0.00 0.94 0.45 88 1010.6
20260506101002 45 307 1.0 4.0 0.00 0.95 0.45 88 1010.2
20260506100502 45 341 1.0 3.0 0.00 0.99 0.45 88 1009.8
20260506100002 45 356 1.0 5.0 0.00 1.01 0.45 88 1009.6
20260506095501 45 349 1.0 5.0 0.00 1.03 0.45 88 1009.4
20260506095023 45 351 1.0 5.0 0.00 1.04 0.45 88 1009.6
20260506094523 45 6 1.0 4.0 0.00 1.05 0.45 87 1009.6
20260506094002 45 5 1.0 5.0 0.00 1.05 0.45 87 1009.7
20260506093501 44 3 1.0 5.0 0.00 1.06 0.45 87 1009.5
20260506093001 45 354 0.0 2.0 0.00 1.07 0.45 88 1009.6
20260506092502 45 344 1.0 3.0 0.00 1.07 0.45 87 1009.7
20260506092002 45 355 2.0 9.0 0.00 1.08 0.45 87 1009.7
20260506091502 45 2 3.0 9.0 0.00 1.08 0.45 87 1009.3
20260506091002 44 6 3.0 11.0 0.00 1.09 0.45 87 1009.0
20260506090502 44 5 3.0 11.0 0.00 1.09 0.45 87 1008.9
20260506090023 44 6 3.0 9.0 0.00 1.09 0.45 87 1009.0
20260506085502 44 5 4.0 11.0 0.01 1.09 0.45 88 1008.9
20260506085002 45 9 3.0 11.0 0.01 1.09 0.45 88 1008.8
20260506084503 45 10 3.0 9.0 0.01 1.09 0.45 88 1008.8
20260506084022 45 1 3.0 9.0 0.01 1.09 0.45 88 1009.2
20260506083502 45 360 3.0 9.0 0.01 1.09 0.45 88 1009.3
20260506083023 45 358 3.0 9.0 0.02 1.09 0.45 88 1009.0
20260506082502 45 3 3.0 9.0 0.02 1.09 0.45 89 1009.1
20260506082002 45 1 3.0 9.0 0.04 1.09 0.45 89 1009.0
20260506081502 45 357 3.0 9.0 0.05 1.09 0.45 89 1008.9
20260506081002 45 360 4.0 11.0 0.05 1.09 0.45 90 1008.7
20260506080502 46 1 4.0 11.0 0.05 1.09 0.45 90 1008.4
20260506073502 47 351 3.0 10.0 0.09 1.08 0.44 90 1008.3
20260506073002 47 360 5.0 11.0 0.09 1.07 0.43 90 1008.3
20260506072502 47 2 4.0 11.0 0.08 1.06 0.42 90 1008.6
20260506072002 48 359 2.0 11.0 0.07 1.05 0.41 90 1008.6
20260506071523 48 357 2.0 8.0 0.06 1.04 0.40 90 1008.5
20260506071024 48 4 2.0 5.0 0.07 1.04 0.40 90 1008.4
20260506070502 48 360 3.0 11.0 0.07 1.04 0.40 90 1008.5
20260506062502 48 2 3.0 10.0 0.10 0.98 0.34 90 1008.0
20260506062002 48 2 3.0 8.0 0.12 0.98 0.34 90 1008.0
20260506061502 48 4 4.0 10.0 0.13 0.98 0.34 90 1007.8
20260506061023 48 6 5.0 14.0 0.13 0.97 0.33 90 1007.6
20260506060502 49 360 4.0 14.0 0.14 0.97 0.33 90 1007.6
20260506051002 51 7 2.0 9.0 0.14 0.84 0.20 90 1007.4
20260506050524 51 6 3.0 11.0 0.17 0.83 0.19 90 1007.3
20260506045023 52 7 2.0 9.0 0.13 0.77 0.13 90 1007.3
20260506044503 52 2 2.0 6.0 0.12 0.76 0.12 90 1007.1
20260506044002 52 1 3.0 8.0 0.13 0.75 0.11 89 1007.1
20260506043523 53 360 2.0 8.0 0.13 0.74 0.10 89 1007.2
20260506043002 54 359 3.0 10.0 0.14 0.74 0.10 89 1007.2
20260506042503 54 352 3.0 10.0 0.13 0.73 0.09 89 1006.8
20260506042002 56 335 2.0 8.0 0.12 0.72 0.08 89 1007.0
20260506041502 58 298 1.0 4.0 0.11 0.71 0.07 90 1007.1
20260506041023 59 199 0.0 2.0 0.09 0.69 0.05 90 1006.9
20260506040502 59 155 0.0 2.0 0.06 0.66 0.02 90 1006.8
20260506040002 59 156 1.0 2.0 0.04 0.64 0.00 89 1006.9
20260506035502 59 157 1.0 2.0 0.04 0.64 0.64 89 1006.6
20260506035003 59 157 1.0 2.0 0.04 0.64 0.64 89 1006.6
20260506034502 59 163 1.0 3.0 0.04 0.64 0.64 89 1006.6
20260506034002 59 184 1.0 3.0 0.02 0.62 0.62 89 1006.7
20260506033503 59 192 0.0 3.0 0.02 0.61 0.61 89 1006.8
20260506033003 59 202 0.0 2.0 0.02 0.60 0.60 89 1006.7
20260506032523 59 203 0.0 2.0 0.02 0.60 0.60 89 1006.7
20260506032002 59 206 0.0 2.0 0.02 0.60 0.60 89 1006.7
20260506031503 59 209 0.0 2.0 0.02 0.60 0.60 89 1006.9
20260506031002 59 211 1.0 2.0 0.02 0.60 0.60 89 1006.9
20260506030502 59 213 1.0 2.0 0.02 0.60 0.60 90 1006.9
20260506030002 59 219 1.0 2.0 0.02 0.60 0.60 90 1007.0
20260506025502 59 222 1.0 2.0 0.03 0.60 0.60 90 1007.1
20260506025003 59 229 0.0 2.0 0.04 0.60 0.60 90 1007.2
20260506024502 59 0 0.0 0.0 0.05 0.60 0.60 90 1007.1
20260506024002 59 0 0.0 0.0 0.06 0.60 0.60 90 1007.1
20260506023503 59 0 0.0 0.0 0.06 0.59 0.59 90 1007.5
20260506023023 59 0 0.0 0.0 0.05 0.58 0.58 90 1007.6
20260506022523 59 233 0.0 1.0 0.06 0.58 0.58 90 1007.8
20260506022024 59 233 0.0 1.0 0.06 0.58 0.58 90 1007.8
20260506021502 59 0 0.0 0.0 0.06 0.58 0.58 90 1007.8
20260506021002 59 0 0.0 0.0 0.06 0.58 0.58 90 1007.8
20260506020503 59 233 0.0 1.0 0.06 0.58 0.58 90 1007.8
20260506020003 59 233 0.0 1.0 0.07 0.58 0.58 89 1007.6
20260506015502 59 233 0.0 2.0 0.09 0.57 0.57 89 1007.6
20260506015002 59 233 0.0 2.0 0.09 0.56 0.56 89 1007.6
20260506014502 59 0 0.0 0.0 0.09 0.54 0.54 89 1007.7
20260506014002 59 0 0.0 0.0 0.11 0.54 0.54 89 1007.7
20260506013502 59 0 0.0 0.0 0.11 0.53 0.53 89 1007.6
20260506013003 59 0 0.0 0.0 0.11 0.53 0.53 89 1007.6
20260506012503 59 0 0.0 0.0 0.10 0.52 0.52 89 1007.5
20260506012002 59 0 0.0 0.0 0.10 0.52 0.52 89 1007.5
20260506011523 60 0 0.0 0.0 0.10 0.52 0.52 89 1007.4
20260506011003 60 232 0.0 2.0 0.10 0.52 0.52 89 1007.3
20260506010502 60 232 0.0 2.0 0.09 0.51 0.51 89 1007.4
20260506010002 60 232 0.0 1.0 0.09 0.50 0.50 89 1007.4
20260506005503 60 234 0.0 3.0 0.07 0.48 0.48 89 1007.5
20260506005002 60 229 1.0 3.0 0.07 0.47 0.47 89 1007.7
20260506004503 60 233 1.0 4.0 0.05 0.45 0.45 89 1007.6
20260506004003 60 250 1.0 5.0 0.03 0.43 0.43 89 1007.4
20260506003502 60 303 0.0 5.0 0.02 0.42 0.42 89 1007.2
20260506003003 60 266 0.0 1.0 0.02 0.42 0.42 89 1007.1
20260506002502 60 266 0.0 1.0 0.02 0.42 0.42 89 1007.0
20260506002002 60 266 0.0 1.0 0.02 0.42 0.42 89 1007.1
20260506001503 60 266 0.0 1.0 0.03 0.42 0.42 89 1007.0
20260506001023 60 266 0.0 2.0 0.03 0.42 0.42 89 1007.1
20260506000502 60 266 0.0 2.0 0.04 0.42 0.42 89 1006.9
20260506000002 60 266 0.0 1.0 0.03 0.41 0.41 89 1006.8
20260505235503 60 266 0.0 1.0 0.03 0.41 0.41 89 1006.6
20260505235002 60 252 0.0 2.0 0.02 0.40 0.40 89 1006.7
20260505234502 60 216 1.0 4.0 0.02 0.40 0.40 89 1006.8
20260505234002 60 210 1.0 4.0 0.02 0.40 0.40 89 1007.0
20260505233502 61 210 0.0 4.0 0.02 0.40 0.40 89 1007.0
20260505233003 61 233 0.0 2.0 0.02 0.40 0.40 89 1006.9
20260505232502 61 253 1.0 2.0 0.02 0.40 0.40 89 1007.2
20260505232002 61 242 1.0 3.0 0.02 0.40 0.40 89 1007.5
20260505231502 61 230 0.0 3.0 0.01 0.39 0.39 89 1007.4
20260505231023 61 225 0.0 2.0 0.01 0.39 0.39 89 1007.4
20260505230502 61 217 0.0 4.0 0.00 0.38 0.38 89 1007.4
20260505230003 61 156 1.0 4.0 0.00 0.38 0.38 89 1007.2
20260505225502 61 132 1.0 4.0 0.00 0.38 0.38 89 1007.3
20260505225002 61 136 1.0 4.0 0.00 0.38 0.38 89 1007.4
20260505224503 61 144 1.0 4.0 0.00 0.38 0.38 89 1007.4
20260505224003 61 151 1.0 4.0 0.00 0.38 0.38 89 1007.5
20260505223502 61 165 1.0 4.0 0.00 0.38 0.38 89 1007.5
20260505223003 61 157 2.0 4.0 0.00 0.38 0.38 89 1007.5
20260505222504 61 150 1.0 4.0 0.00 0.38 0.38 89 1007.7
20260505222002 61 141 2.0 4.0 0.00 0.38 0.38 89 1007.7
20260505221524 61 150 2.0 4.0 0.00 0.38 0.38 89 1007.7
20260505221003 61 162 1.0 4.0 0.00 0.38 0.38 89 1007.8
20260505220502 61 151 2.0 9.0 0.01 0.38 0.38 89 1007.8
20260505220003 61 163 2.0 9.0 0.01 0.38 0.38 89 1008.0
20260505215503 61 179 2.0 8.0 0.01 0.38 0.38 89 1008.0
20260505215002 61 171 2.0 8.0 0.02 0.38 0.38 89 1008.1
20260505214503 61 152 1.0 7.0 0.02 0.38 0.38 89 1008.1
20260505214002 61 146 1.0 5.0 0.02 0.38 0.38 89 1008.1
20260505213502 61 167 1.0 5.0 0.02 0.38 0.38 89 1008.2
20260505213003 61 171 1.0 5.0 0.02 0.38 0.38 89 1008.1
20260505212523 61 159 2.0 5.0 0.03 0.38 0.38 89 1008.0
20260505212024 61 177 2.0 5.0 0.04 0.38 0.38 89 1008.1
20260505211523 61 214 2.0 7.0 0.04 0.38 0.38 89 1008.2
20260505211002 61 201 1.0 7.0 0.05 0.38 0.38 89 1008.2
20260505210503 61 203 1.0 6.0 0.04 0.37 0.37 89 1008.2
20260505210002 61 178 2.0 9.0 0.05 0.37 0.37 89 1008.2
20260505205502 61 151 2.0 9.0 0.04 0.36 0.36 89 1008.1
20260505205003 61 158 2.0 5.0 0.04 0.36 0.36 89 1008.2
20260505204502 61 159 2.0 4.0 0.05 0.36 0.36 88 1008.2
20260505204003 61 159 2.0 9.0 0.06 0.36 0.36 88 1008.2
20260505203503 62 198 2.0 9.0 0.06 0.36 0.36 88 1008.1
20260505203002 62 206 2.0 7.0 0.07 0.35 0.35 88 1008.2
20260505202502 62 164 2.0 5.0 0.08 0.35 0.35 89 1008.3
20260505202003 62 148 1.0 5.0 0.08 0.34 0.34 89 1008.2
20260505201503 62 151 1.0 3.0 0.09 0.34 0.34 88 1008.4
20260505201003 62 133 0.0 3.0 0.11 0.33 0.33 88 1008.4
20260505200503 62 280 0.0 2.0 0.14 0.33 0.33 88 1008.5
20260505200002 62 223 0.0 2.0 0.14 0.32 0.32 88 1008.5
20260505195502 62 186 0.0 2.0 0.14 0.32 0.32 88 1008.5
20260505195003 62 221 0.0 2.0 0.14 0.32 0.32 88 1008.6
20260505194503 62 257 0.0 2.0 0.13 0.31 0.31 88 1008.6
20260505194003 62 280 0.0 2.0 0.12 0.30 0.30 87 1008.7
20260505193503 62 254 1.0 7.0 0.12 0.30 0.30 87 1008.8
20260505193003 62 225 2.0 7.0 0.10 0.28 0.29 86 1008.9
20260505192503 62 192 2.0 7.0 0.09 0.27 0.27 85 1009.1
20260505192002 63 220 2.0 6.0 0.08 0.26 0.26 84 1009.1
20260505191503 64 248 2.0 6.0 0.06 0.24 0.24 82 1009.0
20260505191003 65 242 2.0 6.0 0.04 0.22 0.22 79 1008.9
20260505190523 66 230 2.0 5.0 0.01 0.19 0.19 77 1008.7
20260505190023 67 214 1.0 6.0 0.00 0.18 0.18 75 1008.5
20260505185524 67 198 1.0 6.0 0.00 0.18 0.18 72 1008.4
20260505185002 67 203 2.0 6.0 0.00 0.18 0.18 72 1008.4
20260505184503 67 202 2.0 8.0 0.00 0.18 0.18 71 1008.5
20260505184002 67 186 2.0 9.0 0.00 0.18 0.18 71 1008.6
20260505183502 67 152 2.0 9.0 0.00 0.18 0.18 71 1008.6
20260505183003 67 150 2.0 7.0 0.00 0.18 0.18 70 1008.6
20260505182503 67 180 2.0 7.0 0.00 0.18 0.18 71 1008.6
20260505181503 67 167 3.0 9.0 0.00 0.18 0.18 71 1008.8
20260505181002 67 178 2.0 11.0 0.00 0.18 0.18 70 1008.8
20260505180502 67 178 2.0 11.0 0.00 0.18 0.18 70 1008.9
20260505180003 67 161 3.0 7.0 0.00 0.18 0.18 71 1009.0
20260505175508 67 159 2.0 7.0 0.00 0.18 0.18 69 1009.0
20260505175002 67 164 2.0 6.0 0.00 0.18 0.18 70 1009.0
20260505174502 67 161 2.0 6.0 0.00 0.18 0.18 70 1008.9
20260505174003 67 188 2.0 9.0 0.00 0.18 0.18 70 1009.0
20260505173502 67 200 3.0 9.0 0.00 0.18 0.18 70 1009.0
20260505173003 66 194 3.0 11.0 0.00 0.18 0.18 71 1009.1
20260505172507 66 182 3.0 11.0 0.00 0.18 0.18 70 1009.2
20260505172003 66 155 3.0 10.0 0.00 0.18 0.18 71 1009.3
20260505171503 66 152 2.0 10.0 0.00 0.18 0.18 71 1009.2
20260505171024 66 162 1.0 7.0 0.00 0.18 0.18 71 1009.3
20260505170504 66 172 2.0 9.0 0.00 0.18 0.18 71 1009.3
20260505170002 66 190 2.0 9.0 0.00 0.18 0.18 72 1009.3
20260505165503 66 198 3.0 8.0 0.00 0.18 0.18 71 1009.3
20260505165002 66 184 3.0 11.0 0.00 0.18 0.18 69 1009.3
20260505164503 66 182 2.0 11.0 0.00 0.18 0.18 69 1009.3
20260505164003 66 196 2.0 5.0 0.00 0.18 0.18 70 1009.3
20260505163523 66 192 2.0 7.0 0.00 0.18 0.18 71 1009.3
20260505163003 66 179 2.0 7.0 0.00 0.18 0.18 71 1009.3
20260505162503 66 167 2.0 7.0 0.00 0.18 0.18 70 1009.4
20260505162003 66 167 2.0 6.0 0.00 0.18 0.18 71 1009.4
20260505161523 66 198 1.0 6.0 0.00 0.18 0.18 71 1009.3
20260505161003 66 168 2.0 7.0 0.00 0.18 0.18 71 1009.3
20260505160502 66 163 2.0 7.0 0.00 0.18 0.18 71 1009.2
20260505153023 65 159 2.0 5.0 0.00 0.18 0.18 71 1009.2
20260505152503 66 156 2.0 9.0 0.00 0.18 0.18 71 1009.1
20260505152002 66 151 2.0 9.0 0.00 0.18 0.18 72 1008.9
20260505151503 66 157 3.0 11.0 0.00 0.18 0.18 71 1009.0
20260505151003 66 161 3.0 11.0 0.00 0.18 0.18 71 1009.0
20260505150503 66 155 2.0 9.0 0.00 0.18 0.18 72 1009.0